FW1747 Weather Reports


Display with metric or nautical units.
time (UTC)temp
F
wind
direction
speed
MPH
gust
MPH
rain 1hr
in
rain 24hr
in
rain mn
in
humidity
%
barometer
mb
20260507210055 66 232 0.0 0.0 0.00 0.00 0.00 54 1018.9
20260507204559 64 79 0.0 0.0 0.00 0.00 0.00 57 1019.1
20260507203048 65 18 0.0 0.0 0.00 0.00 0.00 57 1019.3
20260507201544 63 11 0.0 1.0 0.00 0.00 0.00 59 1019.6
20260507200042 63 327 0.0 0.0 0.00 0.00 0.00 60 1019.6
20260507194539 62 342 0.0 1.0 0.00 0.00 0.00 60 1019.8
20260507193037 62 359 0.0 0.0 0.00 0.00 0.00 62 1019.9
20260507191533 60 325 0.0 0.0 0.00 0.00 0.00 64 1020.1
20260507190039 61 12 0.0 0.0 0.00 0.00 0.00 62 1020.3
20260507184537 60 259 0.0 0.0 0.00 0.00 0.00 62 1020.3
20260507183027 59 349 0.0 0.0 0.00 0.00 0.00 64 1020.5
20260507181523 59 327 0.0 0.0 0.00 0.00 0.00 65 1020.5
20260507180023 59 4 0.0 0.0 0.00 0.00 0.00 67 1020.7
20260507174526 58 4 0.0 1.0 0.00 0.00 0.00 66 1020.8
20260507173024 58 265 0.0 1.0 0.00 0.00 0.00 66 1020.8
20260507171514 57 312 0.0 0.0 0.00 0.00 0.00 68 1020.8
20260507170015 57 33 0.0 0.0 0.00 0.00 0.00 70 1020.7
20260507164514 55 1 0.0 0.0 0.00 0.00 0.00 72 1020.8
20260507163006 55 86 0.0 0.0 0.00 0.00 0.00 71 1020.8
20260507161502 55 356 0.0 0.0 0.00 0.00 0.00 73 1020.9
20260507160002 54 15 0.0 0.0 0.00 0.00 0.00 72 1020.9
20260507154600 54 7 0.0 1.0 0.00 0.00 0.00 73 1021.0
20260507153059 54 328 0.0 0.0 0.00 0.00 0.00 72 1021.0
20260507151554 53 4 0.0 0.0 0.00 0.00 0.00 73 1021.1
20260507150053 53 318 0.0 0.0 0.00 0.00 0.00 73 1021.1
20260507144552 53 359 0.0 0.0 0.00 0.00 0.00 73 1021.0
20260507143051 53 360 0.0 1.0 0.00 0.00 0.00 73 1020.9
20260507141554 52 328 0.0 0.0 0.00 0.00 0.00 74 1020.8
20260507140107 52 300 0.0 0.0 0.00 0.00 0.00 74 1020.7
20260507134549 52 6 0.0 0.0 0.00 0.00 0.00 74 1020.6
20260507133048 52 356 0.0 0.0 0.00 0.00 0.00 75 1020.7
20260507131558 52 351 0.0 0.0 0.00 0.00 0.00 75 1020.7
20260507130052 52 359 0.0 0.0 0.00 0.00 0.00 76 1020.8
20260507124602 52 340 0.0 0.0 0.00 0.00 0.00 77 1020.7
20260507123055 52 360 0.0 0.0 0.00 0.00 0.00 77 1020.8
20260507121547 52 1 0.0 0.0 0.00 0.00 0.00 79 1020.9
20260507120045 52 319 0.0 0.0 0.00 0.00 0.00 79 1020.9
20260507114545 52 309 0.0 0.0 0.00 0.00 0.00 79 1021.0
20260507113042 52 309 0.0 0.0 0.00 0.00 0.00 79 1021.1
20260507111543 52 281 0.0 0.0 0.00 0.00 0.00 79 1021.2
20260507110038 52 285 0.0 0.0 0.00 0.00 0.00 79 1021.2
20260507104540 52 285 0.0 0.0 0.00 0.00 0.00 79 1021.2
20260507103036 53 284 0.0 0.0 0.00 0.00 0.00 79 1021.3
20260507101543 53 283 0.0 0.0 0.00 0.00 0.00 79 1021.4
20260507100036 52 283 0.0 0.0 0.00 0.00 0.00 79 1021.5
20260507094533 52 277 0.0 0.0 0.00 0.00 0.00 79 1021.6
20260507093038 53 276 0.0 0.0 0.00 0.00 0.00 79 1021.6
20260507091530 53 276 0.0 0.0 0.00 0.00 0.00 79 1021.8
20260507090032 53 276 0.0 0.0 0.00 0.00 0.00 78 1021.9
20260507084529 52 286 0.0 0.0 0.00 0.00 0.00 78 1021.9
20260507083037 52 274 0.0 0.0 0.00 0.00 0.00 78 1021.8
20260507081529 52 271 0.0 0.0 0.00 0.00 0.00 78 1021.8
20260507080026 52 286 0.0 0.0 0.00 0.00 0.00 78 1021.9
20260507074529 52 233 0.0 0.0 0.00 0.00 0.00 78 1021.9
20260507073025 52 228 0.0 0.0 0.00 0.00 0.00 78 1021.9
20260507071523 52 295 0.0 0.0 0.00 0.00 0.00 78 1021.7
20260507070022 52 274 0.0 0.0 0.00 0.00 0.00 77 1021.8
20260507064521 52 280 0.0 0.0 0.00 0.00 0.00 78 1021.8
20260507063020 52 15 0.0 0.0 0.00 0.00 0.00 78 1021.8
20260507061520 52 283 0.0 0.0 0.00 0.00 0.00 78 1021.8
20260507060023 52 262 0.0 0.0 0.00 0.00 0.00 78 1021.8
20260507054518 52 285 0.0 0.0 0.00 0.00 0.00 78 1021.8
20260507053018 52 343 0.0 0.0 0.00 0.00 0.00 77 1021.8
20260507051517 52 299 0.0 5.0 0.00 0.00 0.00 77 1021.8
20260507050016 52 281 0.0 0.0 0.00 0.00 0.00 78 1021.8
20260507044515 52 271 0.0 0.0 0.00 0.00 0.00 77 1021.7
20260507043015 53 229 0.0 0.0 0.00 0.00 0.00 77 1021.6
20260507041514 53 253 0.0 0.0 0.00 0.00 0.00 76 1021.4
20260507040013 54 322 0.0 0.0 0.00 0.00 0.00 76 1021.2
20260507034518 55 210 0.0 0.0 0.00 0.00 0.00 75 1021.1
20260507033013 56 216 0.0 0.0 0.00 0.00 0.00 74 1020.8
20260507031511 57 304 0.0 0.0 0.00 0.00 0.00 72 1020.6
20260507030012 58 247 0.0 0.0 0.00 0.00 0.00 71 1020.5
20260507024511 59 266 0.0 0.0 0.00 0.00 0.00 69 1020.4
20260507023010 60 346 0.0 1.0 0.00 0.00 0.00 68 1020.4
20260507021514 61 293 0.0 0.0 0.00 0.00 0.00 67 1020.4
20260507020009 63 224 0.0 0.0 0.00 0.00 0.00 64 1020.5
20260507014508 63 283 0.0 1.0 0.00 0.00 0.00 64 1020.5
20260507013008 64 354 0.0 0.0 0.00 0.00 0.00 64 1020.4
20260507011511 64 280 0.0 0.0 0.00 0.00 0.00 63 1020.4
20260507010007 65 10 0.0 1.0 0.00 0.00 0.00 63 1020.4
20260507004510 67 319 0.0 0.0 0.00 0.00 0.00 61 1020.3
20260507003008 69 304 0.0 0.0 0.00 0.00 0.00 58 1020.2
20260507001504 71 5 0.0 0.0 0.00 0.00 0.00 57 1020.1
20260507000004 70 251 0.0 1.0 0.00 0.00 0.00 59 1020.0
20260506234508 70 193 0.0 0.0 0.00 0.00 0.00 58 1020.0
20260506233003 71 200 0.0 0.0 0.00 0.00 0.00 58 1020.0
20260506231502 70 350 0.0 0.0 0.00 0.00 0.00 56 1020.1
20260506230001 71 357 0.0 0.0 0.00 0.00 0.00 56 1020.0
20260506224502 69 84 0.0 0.0 0.00 0.00 0.00 60 1020.2
20260506223100 71 194 0.0 0.0 0.00 0.00 0.00 56 1020.4
20260506221558 71 126 0.0 0.0 0.00 0.00 0.00 58 1020.5
20260506220106 67 23 0.0 0.0 0.00 0.00 0.00 65 1020.7
20260506214554 68 36 0.0 0.0 0.00 0.00 0.00 60 1020.6
20260506213100 69 122 0.0 0.0 0.00 0.00 0.00 62 1020.8
20260506211649 68 65 0.0 0.0 0.00 0.00 0.00 63 1020.8